Location: Altamira
(10.5079°N, 66.8544°W)
Time: 20:08:00
(UTC+00:00)

SL-16 R/B - Pass Details

Date: 08 December 2021
Orbit: 842 x 846 km, 71.0° (Epoch: 16 January)

Event Time Altitude Azimuth Distance (km) Brightness Sun altitude
Rises 22:58:08 0° 3° (N) 3,393 5.1 -12.8°
Reaches altitude 10° 23:00:55 10° 15° (NNE) 2,459 4.3 -13.5°
Maximum altitude 23:05:40 28° 72° (ENE) 1,548 3.0 -14.6°
Drops below altitude 10° 23:10:24 10° 129° (SE) 2,459 4.3 -15.7°
Sets 23:13:10 0° 141° (SE) 3,394 5.2 -16.3°
